User: anonymous   Login
Location: Mascot Post Office (historical)
(40.2645°N, 99.5462°W)
Time: 17:44:21
(UTC+00:00)
Language:

IRIS - Orbit

View from above orbital plane
View from above orbital plane
View from above satellite
View from above satellite

Ground track
Ground track

The orbit data is extracted from the following two-line orbital elements,

1 22196U 92070D   20271.28068661  .00011035  39926-5  31162-3 0  9997
2 22196  41.1454 208.2889 1544783 122.7675 253.1441 12.42242074111977
Epoch (UTC): 27 September 2020 06:44:11
Eccentricity: 0.1544783
inclination: 41.1454°
perigee height: 280 km
apogee height: 2713 km
right ascension of ascending node: 208.2889°
argument of perigee: 122.7675°
revolutions per day: 12.42242074
mean anomaly at epoch: 253.1441°
orbit number at epoch: 11197

The dashed part of the orbit path shows where the satellite is in the earth's shadow,  

DLR